Time,TemperatureF,DewpointF,PressureIn,WindDirection,WindDirectionDegrees,WindSpeedMPH,WindSpeedGustMPH,Humidity,HourlyPrecipIn,Conditions,Clouds,dailyrainin,SoftwareType,DateUTC
2013-03-27 00:03:00,41.0,-99.9,-100.00,West,260,14.0,20.0,-999,-99.99,,,-99.99,,2013-03-27 04:03:00,
2013-03-27 00:14:00,41.0,-99.9,-100.00,West,265,13.0,20.0,-999,-99.99,,,-99.99,,2013-03-27 04:14:00,
2013-03-27 00:23:00,41.0,-99.9,-100.00,West,270,15.0,21.0,-999,-99.99,,,-99.99,,2013-03-27 04:23:00,
2013-03-27 00:33:00,41.0,-99.9,-100.00,West,260,14.0,20.0,-999,-99.99,,,-99.99,,2013-03-27 04:33:00,
2013-03-27 00:43:00,40.0,-99.9,-100.00,West,260,13.0,21.0,-999,-99.99,,,-99.99,,2013-03-27 04:43:00,
2013-03-27 00:53:00,40.0,-99.9,-100.00,West,265,15.0,23.0,-999,-99.99,,,-99.99,,2013-03-27 04:53:00,
2013-03-27 01:03:00,40.0,-99.9,-100.00,West,270,13.0,21.0,-999,-99.99,,,-99.99,,2013-03-27 05:03:00,
2013-03-27 01:13:00,40.0,-99.9,-100.00,West,270,14.0,19.0,-999,-99.99,,,-99.99,,2013-03-27 05:13:00,
2013-03-27 01:23:00,40.0,-99.9,-100.00,West,265,11.0,22.0,-999,-99.99,,,-99.99,,2013-03-27 05:23:00,
2013-03-27 01:33:00,40.0,-99.9,-100.00,West,265,14.0,22.0,-999,-99.99,,,-99.99,,2013-03-27 05:33:00,
2013-03-27 01:42:00,39.0,-99.9,-100.00,West,270,15.0,23.0,-999,-99.99,,,-99.99,,2013-03-27 05:42:00,
2013-03-27 01:53:00,39.0,-99.9,-100.00,West,270,14.0,21.0,-999,-99.99,,,-99.99,,2013-03-27 05:53:00,
2013-03-27 02:02:00,39.0,-99.9,-100.00,West,270,14.0,21.0,-999,-99.99,,,-99.99,,2013-03-27 06:02:00,
2013-03-27 02:12:00,39.0,-99.9,-100.00,West,265,14.0,21.0,-999,-99.99,,,-99.99,,2013-03-27 06:12:00,
2013-03-27 02:23:00,38.0,-99.9,-100.00,West,270,16.0,20.0,-999,-99.99,,,-99.99,,2013-03-27 06:23:00,
2013-03-27 02:32:00,38.0,-99.9,-100.00,West,270,16.0,20.0,-999,-99.99,,,-99.99,,2013-03-27 06:32:00,
2013-03-27 02:43:00,38.0,-99.9,-100.00,West,270,14.0,19.0,-999,-99.99,,,-99.99,,2013-03-27 06:43:00,
2013-03-27 02:53:00,38.0,-99.9,-100.00,West,270,13.0,18.0,-999,-99.99,,,-99.99,,2013-03-27 06:53:00,
2013-03-27 03:02:00,38.0,-99.9,-100.00,West,265,11.0,17.0,-999,-99.99,,,-99.99,,2013-03-27 07:02:00,
2013-03-27 03:11:00,38.0,-99.9,-100.00,West,270,11.0,14.0,-999,-99.99,,,-99.99,,2013-03-27 07:11:00,
2013-03-27 03:12:00,38.0,-99.9,-100.00,West,265,11.0,16.0,-999,-99.99,,,-99.99,,2013-03-27 07:12:00,
2013-03-27 03:22:00,38.0,-99.9,-100.00,West,275,12.0,16.0,-999,-99.99,,,-99.99,,2013-03-27 07:22:00,
2013-03-27 03:33:00,38.0,-99.9,-100.00,West,265,12.0,16.0,-999,-99.99,,,-99.99,,2013-03-27 07:33:00,
2013-03-27 03:43:00,38.0,-99.9,-100.00,West,270,11.0,14.0,-999,-99.99,,,-99.99,,2013-03-27 07:43:00,
2013-03-27 03:54:00,38.0,-99.9,-100.00,West,270,11.0,14.0,-999,-99.99,,,-99.99,,2013-03-27 07:54:00,
2013-03-27 04:03:00,38.0,-99.9,-100.00,West,270,11.0,14.0,-999,-99.99,,,-99.99,,2013-03-27 08:03:00,
2013-03-27 04:22:00,37.0,-99.9,-100.00,West,270,11.0,14.0,-999,-99.99,,,-99.99,,2013-03-27 08:22:00,
2013-03-27 04:32:00,37.0,-99.9,-100.00,West,280,11.0,15.0,-999,-99.99,,,-99.99,,2013-03-27 08:32:00,
2013-03-27 04:43:00,37.0,-99.9,-100.00,West,270,11.0,14.0,-999,-99.99,,,-99.99,,2013-03-27 08:43:00,
2013-03-27 04:52:00,37.0,-99.9,-100.00,West,275,11.0,16.0,-999,-99.99,,,-99.99,,2013-03-27 08:52:00,
2013-03-27 05:02:00,37.0,-99.9,-100.00,West,275,12.0,16.0,-999,-99.99,,,-99.99,,2013-03-27 09:02:00,
2013-03-27 05:12:00,37.0,-99.9,-100.00,West,270,13.0,16.0,-999,-99.99,,,-99.99,,2013-03-27 09:12:00,
2013-03-27 05:22:00,36.0,-99.9,-100.00,West,270,11.0,15.0,-999,-99.99,,,-99.99,,2013-03-27 09:22:00,
2013-03-27 05:33:00,36.0,-99.9,-100.00,WNW,285,12.0,16.0,-999,-99.99,,,-99.99,,2013-03-27 09:33:00,
2013-03-27 05:42:00,36.0,-99.9,-100.00,WNW,295,11.0,19.0,-999,-99.99,,,-99.99,,2013-03-27 09:42:00,
2013-03-27 05:52:00,36.0,-99.9,-100.00,WNW,295,11.0,16.0,-999,-99.99,,,-99.99,,2013-03-27 09:52:00,
2013-03-27 06:03:00,36.0,-99.9,-100.00,WNW,295,12.0,18.0,-999,-99.99,,,-99.99,,2013-03-27 10:03:00,
2013-03-27 06:13:00,36.0,-99.9,-100.00,WNW,300,11.0,16.0,-999,-99.99,,,-99.99,,2013-03-27 10:13:00,
2013-03-27 06:23:00,36.0,-99.9,-100.00,WNW,295,11.0,16.0,-999,-99.99,,,-99.99,,2013-03-27 10:23:00,
2013-03-27 06:32:00,36.0,-99.9,-100.00,WNW,300,11.0,14.0,-999,-99.99,,,-99.99,,2013-03-27 10:32:00,
2013-03-27 06:42:00,36.0,-99.9,-100.00,WNW,295,10.0,17.0,-999,-99.99,,,-99.99,,2013-03-27 10:42:00,
2013-03-27 06:53:00,36.0,-99.9,-100.00,WNW,290,11.0,14.0,-999,-99.99,,,-99.99,,2013-03-27 10:53:00,
2013-03-27 07:03:00,36.0,-99.9,-100.00,WNW,300,10.0,14.0,-999,-99.99,,,-99.99,,2013-03-27 11:03:00,
2013-03-27 07:12:00,36.0,-99.9,-100.00,WNW,295,11.0,14.0,-999,-99.99,,,-99.99,,2013-03-27 11:12:00,
2013-03-27 07:23:00,35.0,-99.9,-100.00,WNW,300,13.0,16.0,-999,-99.99,,,-99.99,,2013-03-27 11:23:00,
2013-03-27 07:32:00,35.0,-99.9,-100.00,WNW,295,10.0,15.0,-999,-99.99,,,-99.99,,2013-03-27 11:32:00,
2013-03-27 07:43:00,35.0,-99.9,-100.00,West,280,9.0,12.0,-999,-99.99,,,-99.99,,2013-03-27 11:43:00,
2013-03-27 07:53:00,35.0,-99.9,-100.00,West,275,9.0,13.0,-999,-99.99,,,-99.99,,2013-03-27 11:53:00,
2013-03-27 08:03:00,35.0,-99.9,-100.00,WNW,285,9.0,14.0,-999,-99.99,,,-99.99,,2013-03-27 12:03:00,
2013-03-27 08:12:00,35.0,-99.9,-100.00,West,270,9.0,12.0,-999,-99.99,,,-99.99,,2013-03-27 12:12:00,
2013-03-27 08:23:00,35.0,-99.9,-100.00,West,265,9.0,13.0,-999,-99.99,,,-99.99,,2013-03-27 12:23:00,
2013-03-27 08:32:00,35.0,-99.9,-100.00,West,270,8.0,11.0,-999,-99.99,,,-99.99,,2013-03-27 12:32:00,
2013-03-27 08:44:00,36.0,-99.9,-100.00,West,270,8.0,12.0,-999,-99.99,,,-99.99,,2013-03-27 12:44:00,
2013-03-27 08:52:00,36.0,-99.9,-100.00,West,270,9.0,11.0,-999,-99.99,,,-99.99,,2013-03-27 12:52:00,
2013-03-27 09:02:00,36.0,-99.9,-100.00,WNW,295,11.0,14.0,-999,-99.99,,,-99.99,,2013-03-27 13:02:00,
2013-03-27 09:12:00,37.0,-99.9,-100.00,NW,310,10.0,16.0,-999,-99.99,,,-99.99,,2013-03-27 13:12:00,
2013-03-27 09:23:00,38.0,-99.9,-100.00,NW,305,12.0,17.0,-999,-99.99,,,-99.99,,2013-03-27 13:23:00,
2013-03-27 09:33:00,39.0,-99.9,-100.00,WNW,300,11.0,18.0,-999,-99.99,,,-99.99,,2013-03-27 13:33:00,
2013-03-27 09:42:00,40.0,-99.9,-100.00,NW,310,10.0,18.0,-999,-99.99,,,-99.99,,2013-03-27 13:42:00,
2013-03-27 09:53:00,40.0,-99.9,-100.00,NW,315,11.0,16.0,-999,-99.99,,,-99.99,,2013-03-27 13:53:00,
2013-03-27 10:02:00,41.0,-99.9,-100.00,NW,315,9.0,16.0,-999,-99.99,,,-99.99,,2013-03-27 14:02:00,
2013-03-27 10:12:00,41.0,-99.9,-100.00,NW,315,11.0,18.0,-999,-99.99,,,-99.99,,2013-03-27 14:12:00,
2013-03-27 10:22:00,42.0,-99.9,-100.00,NW,320,14.0,19.0,-999,-99.99,,,-99.99,,2013-03-27 14:22:00,
2013-03-27 10:32:00,43.0,-99.9,-100.00,NW,320,11.0,16.0,-999,-99.99,,,-99.99,,2013-03-27 14:32:00,
2013-03-27 10:43:00,43.0,-99.9,-100.00,North,350,9.0,16.0,-999,-99.99,,,-99.99,,2013-03-27 14:43:00,
2013-03-27 10:52:00,44.0,-99.9,-100.00,NW,315,12.0,22.0,-999,-99.99,,,-99.99,,2013-03-27 14:52:00,
2013-03-27 11:03:00,44.0,-99.9,-100.00,NNW,330,12.0,19.0,-999,-99.99,,,-99.99,,2013-03-27 15:03:00,
2013-03-27 11:12:00,44.0,-99.9,-100.00,NW,305,15.0,21.0,-999,-99.99,,,-99.99,,2013-03-27 15:12:00,
2013-03-27 11:23:00,45.0,-99.9,-100.00,NNW,345,6.0,17.0,-999,-99.99,,,-99.99,,2013-03-27 15:23:00,
2013-03-27 11:33:00,45.0,-99.9,-100.00,NW,310,9.0,14.0,-999,-99.99,,,-99.99,,2013-03-27 15:33:00,
2013-03-27 11:43:00,46.0,-99.9,-100.00,North,10,10.0,17.0,-999,-99.99,,,-99.99,,2013-03-27 15:43:00,
2013-03-27 11:53:00,47.0,-99.9,-100.00,NNW,345,4.0,16.0,-999,-99.99,,,-99.99,,2013-03-27 15:53:00,
2013-03-27 12:03:00,46.0,-99.9,-100.00,WNW,300,11.0,17.0,-999,-99.99,,,-99.99,,2013-03-27 16:03:00,
2013-03-27 12:13:00,47.0,-99.9,-100.00,NW,325,9.0,12.0,-999,-99.99,,,-99.99,,2013-03-27 16:13:00,
2013-03-27 12:23:00,47.0,-99.9,-100.00,North,350,7.0,14.0,-999,-99.99,,,-99.99,,2013-03-27 16:23:00,
2013-03-27 12:33:00,47.0,-99.9,-100.00,NNW,330,7.0,21.0,-999,-99.99,,,-99.99,,2013-03-27 16:33:00,
2013-03-27 12:42:00,47.0,-99.9,-100.00,NW,315,14.0,18.0,-999,-99.99,,,-99.99,,2013-03-27 16:42:00,
2013-03-27 12:52:00,48.0,-99.9,-100.00,NW,325,11.0,18.0,-999,-99.99,,,-99.99,,2013-03-27 16:52:00,
2013-03-27 13:03:00,48.0,-99.9,-100.00,NW,325,11.0,18.0,-999,-99.99,,,-99.99,,2013-03-27 17:03:00,
2013-03-27 13:12:00,48.0,-99.9,-100.00,WNW,300,10.0,17.0,-999,-99.99,,,-99.99,,2013-03-27 17:12:00,
2013-03-27 13:23:00,49.0,-99.9,-100.00,WNW,295,16.0,26.0,-999,-99.99,,,-99.99,,2013-03-27 17:23:00,
2013-03-27 13:33:00,49.0,-99.9,-100.00,NW,305,11.0,21.0,-999,-99.99,,,-99.99,,2013-03-27 17:33:00,
2013-03-27 13:44:00,50.0,-99.9,-100.00,West,265,2.0,17.0,-999,-99.99,,,-99.99,,2013-03-27 17:44:00,
2013-03-27 13:53:00,50.0,-99.9,-100.00,NNW,345,10.0,24.0,-999,-99.99,,,-99.99,,2013-03-27 17:53:00,
2013-03-27 14:03:00,49.0,-99.9,-100.00,NW,315,13.0,21.0,-999,-99.99,,,-99.99,,2013-03-27 18:03:00,
2013-03-27 14:12:00,50.0,-99.9,-100.00,West,270,5.0,24.0,-999,-99.99,,,-99.99,,2013-03-27 18:12:00,
2013-03-27 14:23:00,51.0,-99.9,-100.00,West,280,8.0,16.0,-999,-99.99,,,-99.99,,2013-03-27 18:23:00,
2013-03-27 14:33:00,51.0,-99.9,-100.00,West,280,7.0,16.0,-999,-99.99,,,-99.99,,2013-03-27 18:33:00,
2013-03-27 14:42:00,51.0,-99.9,-100.00,NW,315,9.0,16.0,-999,-99.99,,,-99.99,,2013-03-27 18:42:00,
2013-03-27 14:53:00,51.0,-99.9,-100.00,NW,315,9.0,16.0,-999,-99.99,,,-99.99,,2013-03-27 18:53:00,
2013-03-27 15:03:00,51.0,-99.9,-100.00,NW,315,14.0,23.0,-999,-99.99,,,-99.99,,2013-03-27 19:03:00,
2013-03-27 15:12:00,52.0,-99.9,-100.00,NW,310,8.0,16.0,-999,-99.99,,,-99.99,,2013-03-27 19:12:00,
2013-03-27 15:22:00,52.0,-99.9,-100.00,WNW,290,11.0,21.0,-999,-99.99,,,-99.99,,2013-03-27 19:22:00,
2013-03-27 15:32:00,54.0,-99.9,-100.00,WSW,240,4.0,12.0,-999,-99.99,,,-99.99,,2013-03-27 19:32:00,
2013-03-27 15:42:00,53.0,-99.9,-100.00,WSW,250,9.0,20.0,-999,-99.99,,,-99.99,,2013-03-27 19:42:00,
2013-03-27 15:52:00,53.0,-99.9,-100.00,West,270,6.0,19.0,-999,-99.99,,,-99.99,,2013-03-27 19:52:00,
2013-03-27 16:03:00,54.0,-99.9,-100.00,West,275,8.0,18.0,-999,-99.99,,,-99.99,,2013-03-27 20:03:00,
2013-03-27 16:12:00,53.0,-99.9,-100.00,West,270,15.0,24.0,-999,-99.99,,,-99.99,,2013-03-27 20:12:00,
2013-03-27 16:22:00,53.0,-99.9,-100.00,West,260,8.0,24.0,-999,-99.99,,,-99.99,,2013-03-27 20:22:00,
2013-03-27 16:32:00,54.0,-99.9,-100.00,West,260,11.0,19.0,-999,-99.99,,,-99.99,,2013-03-27 20:32:00,
2013-03-27 16:43:00,54.0,-99.9,-100.00,WNW,300,6.0,20.0,-999,-99.99,,,-99.99,,2013-03-27 20:43:00,
2013-03-27 16:53:00,54.0,-99.9,-100.00,West,265,14.0,23.0,-999,-99.99,,,-99.99,,2013-03-27 20:53:00,
2013-03-27 17:03:00,55.0,-99.9,-100.00,West,265,13.0,25.0,-999,-99.99,,,-99.99,,2013-03-27 21:03:00,
2013-03-27 17:12:00,54.0,-99.9,-100.00,West,275,11.0,20.0,-999,-99.99,,,-99.99,,2013-03-27 21:12:00,
2013-03-27 17:23:00,54.0,-99.9,-100.00,West,270,16.0,24.0,-999,-99.99,,,-99.99,,2013-03-27 21:23:00,
2013-03-27 17:33:00,55.0,-99.9,-100.00,WNW,300,16.0,21.0,-999,-99.99,,,-99.99,,2013-03-27 21:33:00,
2013-03-27 17:44:00,54.0,-99.9,-100.00,North,355,9.0,24.0,-999,-99.99,,,-99.99,,2013-03-27 21:44:00,
2013-03-27 17:52:00,56.0,-99.9,-100.00,West,270,4.0,19.0,-999,-99.99,,,-99.99,,2013-03-27 21:52:00,
2013-03-27 18:03:00,55.0,-99.9,-100.00,WNW,290,9.0,24.0,-999,-99.99,,,-99.99,,2013-03-27 22:03:00,
2013-03-27 18:12:00,55.0,-99.9,-100.00,West,275,9.0,19.0,-999,-99.99,,,-99.99,,2013-03-27 22:12:00,
2013-03-27 18:24:00,55.0,-99.9,-100.00,West,275,13.0,23.0,-999,-99.99,,,-99.99,,2013-03-27 22:24:00,
2013-03-27 18:33:00,54.0,-99.9,-100.00,NW,310,14.0,24.0,-999,-99.99,,,-99.99,,2013-03-27 22:33:00,
2013-03-27 18:43:00,54.0,-99.9,-100.00,WNW,285,14.0,23.0,-999,-99.99,,,-99.99,,2013-03-27 22:43:00,
2013-03-27 18:53:00,55.0,-99.9,-100.00,WNW,300,14.0,24.0,-999,-99.99,,,-99.99,,2013-03-27 22:53:00,
2013-03-27 19:03:00,54.0,-99.9,-100.00,WNW,300,11.0,23.0,-999,-99.99,,,-99.99,,2013-03-27 23:03:00,
2013-03-27 19:12:00,55.0,-99.9,-100.00,NW,320,14.0,18.0,-999,-99.99,,,-99.99,,2013-03-27 23:12:00,
2013-03-27 19:22:00,55.0,-99.9,-100.00,West,270,14.0,19.0,-999,-99.99,,,-99.99,,2013-03-27 23:22:00,
2013-03-27 19:32:00,54.0,-99.9,-100.00,West,275,11.0,22.0,-999,-99.99,,,-99.99,,2013-03-27 23:32:00,
2013-03-27 19:43:00,54.0,-99.9,-100.00,WNW,290,15.0,20.0,-999,-99.99,,,-99.99,,2013-03-27 23:43:00,
2013-03-27 19:52:00,54.0,-99.9,-100.00,WNW,285,13.0,17.0,-999,-99.99,,,-99.99,,2013-03-27 23:52:00,
2013-03-27 20:03:00,54.0,-99.9,-100.00,West,270,6.0,16.0,-999,-99.99,,,-99.99,,2013-03-28 00:03:00,
2013-03-27 20:12:00,54.0,-99.9,-100.00,West,275,9.0,13.0,-999,-99.99,,,-99.99,,2013-03-28 00:12:00,
2013-03-27 20:23:00,53.0,-99.9,-100.00,WNW,290,8.0,11.0,-999,-99.99,,,-99.99,,2013-03-28 00:23:00,
2013-03-27 20:33:00,53.0,-99.9,-100.00,West,270,6.0,9.0,-999,-99.99,,,-99.99,,2013-03-28 00:33:00,
2013-03-27 20:43:00,53.0,-99.9,-100.00,West,270,7.0,9.0,-999,-99.99,,,-99.99,,2013-03-28 00:43:00,
2013-03-27 20:52:00,53.0,-99.9,-100.00,West,270,8.0,11.0,-999,-99.99,,,-99.99,,2013-03-28 00:52:00,
2013-03-27 21:03:00,53.0,-99.9,-100.00,West,270,6.0,9.0,-999,-99.99,,,-99.99,,2013-03-28 01:03:00,
2013-03-27 21:12:00,52.0,-99.9,-100.00,WNW,285,4.0,7.0,-999,-99.99,,,-99.99,,2013-03-28 01:12:00,
2013-03-27 21:22:00,53.0,-99.9,-100.00,NNW,340,4.0,9.0,-999,-99.99,,,-99.99,,2013-03-28 01:22:00,
2013-03-27 21:32:00,52.0,-99.9,-100.00,North,350,5.0,9.0,-999,-99.99,,,-99.99,,2013-03-28 01:32:00,
2013-03-27 21:43:00,52.0,-99.9,-100.00,NW,325,6.0,8.0,-999,-99.99,,,-99.99,,2013-03-28 01:43:00,
2013-03-27 21:53:00,53.0,-99.9,-100.00,NW,320,7.0,9.0,-999,-99.99,,,-99.99,,2013-03-28 01:53:00,
2013-03-27 22:03:00,52.0,-99.9,-100.00,NNW,335,5.0,7.0,-999,-99.99,,,-99.99,,2013-03-28 02:03:00,
2013-03-27 22:12:00,52.0,-99.9,-100.00,NW,320,6.0,7.0,-999,-99.99,,,-99.99,,2013-03-28 02:12:00,
2013-03-27 22:23:00,52.0,-99.9,-100.00,NW,315,6.0,6.0,-999,-99.99,,,-99.99,,2013-03-28 02:23:00,
2013-03-27 22:33:00,51.0,-99.9,-100.00,West,270,4.0,7.0,-999,-99.99,,,-99.99,,2013-03-28 02:33:00,
2013-03-27 22:42:00,51.0,-99.9,-100.00,West,270,4.0,7.0,-999,-99.99,,,-99.99,,2013-03-28 02:42:00,
2013-03-27 22:52:00,51.0,-99.9,-100.00,West,270,4.0,7.0,-999,-99.99,,,-99.99,,2013-03-28 02:52:00,
2013-03-27 23:03:00,51.0,-99.9,-100.00,West,270,4.0,5.0,-999,-99.99,,,-99.99,,2013-03-28 03:03:00,
2013-03-27 23:12:00,51.0,-99.9,-100.00,West,270,4.0,5.0,-999,-99.99,,,-99.99,,2013-03-28 03:12:00,
2013-03-27 23:23:00,51.0,-99.9,-100.00,West,275,4.0,4.0,-999,-99.99,,,-99.99,,2013-03-28 03:23:00,
2013-03-27 23:33:00,51.0,-99.9,-100.00,WNW,290,4.0,5.0,-999,-99.99,,,-99.99,,2013-03-28 03:33:00,
2013-03-27 23:43:00,51.0,-99.9,-100.00,West,270,4.0,4.0,-999,-99.99,,,-99.99,,2013-03-28 03:43:00,
2013-03-27 23:53:00,51.0,-99.9,-100.00,West,270,4.0,6.0,-999,-99.99,,,-99.99,,2013-03-28 03:53:00,